Location: Gro�wechsungen
(51.4926°N, 10.6901°E)
Time: 03:53:15
(UTC+00:00)

Meteor 1-24 Rocket - Pass Details

Date: 18 September 2020
Orbit: 790 x 927 km, 81.2° (Epoch: 22 October)

Event Time Altitude Azimuth Distance (km) Brightness Sun altitude
Rises 19:04:32 0° 351° (N) 3,338 7.3 -16.0°
Reaches altitude 10° 19:07:02 10° 358° (N) 2,418 6.4 -16.4°
Maximum altitude 19:12:12 41° 69° (ENE) 1,188 4.1 -17.1°
Enters shadow 19:14:23 29° 117° (ESE) 1,495 4.4 -17.4°
